| time (UTC) | temp C | wind direction | speed KPH | gust KPH | rain 1hr cm | rain 24hr cm | rain mn cm | humidity % | barometer mb |
| 20260504081531 | 7 | 205 | 8.0 | 16.1 | 0.00 | 0.00 | 0.00 | 72 | 1006.1 |
| 20260504044532 | 7 | 217 | 4.8 | 9.7 | 0.00 | 0.00 | 0.00 | 60 | 1006.8 |
| 20260504043035 | 6 | 216 | 4.8 | 11.3 | 0.00 | 0.00 | 0.00 | 60 | 1006.9 |
| 20260504041535 | 6 | 225 | 3.2 | 8.0 | 0.00 | 0.00 | 0.00 | 58 | 1007.0 |
| 20260504040040 | 6 | 227 | 3.2 | 8.0 | 0.00 | 0.00 | 0.00 | 58 | 1006.9 |
| 20260504034542 | 6 | 237 | 4.8 | 8.0 | 0.00 | 0.00 | 0.00 | 58 | 1007.1 |
| 20260504033034 | 6 | 209 | 3.2 | 8.0 | 0.00 | 0.00 | 0.00 | 59 | 1007.0 |
| 20260504031542 | 5 | 205 | 1.6 | 4.8 | 0.00 | 0.00 | 0.00 | 62 | 1006.9 |
| 20260504030040 | 5 | 0 | 0.0 | 6.4 | 0.00 | 0.00 | 0.00 | 64 | 1007.1 |
| 20260504024538 | 5 | 224 | 0.0 | 3.2 | 0.00 | 0.00 | 0.00 | 65 | 1007.1 |
| 20260504023036 | 5 | 0 | 0.0 | 0.0 | 0.00 | 0.00 | 0.00 | 66 | 1007.2 |
| 20260504021532 | 5 | 0 | 0.0 | 0.0 | 0.00 | 0.00 | 0.00 | 65 | 1007.4 |
| 20260504020035 | 5 | 0 | 1.6 | 3.2 | 0.00 | 0.00 | 0.00 | 64 | 1007.4 |
| 20260504014536 | 5 | 218 | 1.6 | 4.8 | 0.00 | 0.00 | 0.00 | 64 | 1007.4 |
| 20260504013032 | 5 | 0 | 0.0 | 3.2 | 0.00 | 0.00 | 0.00 | 64 | 1007.4 |
| 20260504011535 | 5 | 210 | 0.0 | 3.2 | 0.00 | 0.00 | 0.00 | 64 | 1007.4 |
| 20260504010038 | 6 | 214 | 0.0 | 1.6 | 0.00 | 0.00 | 0.00 | 64 | 1007.3 |
| 20260504004532 | 6 | 0 | 0.0 | 1.6 | 0.00 | 0.03 | 0.00 | 64 | 1007.2 |
| 20260504003031 | 6 | 0 | 0.0 | 1.6 | 0.00 | 0.03 | 0.00 | 63 | 1007.2 |
| 20260504001537 | 7 | 201 | 0.0 | 1.6 | 0.00 | 0.03 | 0.00 | 61 | 1007.1 |
| 20260504000035 | 8 | 0 | 0.0 | 0.0 | 0.00 | 0.03 | 0.00 | 59 | 1007.0 |
| 20260503234536 | 9 | 229 | 1.6 | 6.4 | 0.00 | 0.03 | 0.00 | 53 | 1007.0 |
| 20260503233035 | 10 | 224 | 4.8 | 8.0 | 0.00 | 0.03 | 0.00 | 53 | 1006.9 |
| 20260503231545 | 10 | 238 | 4.8 | 8.0 | 0.00 | 0.03 | 0.00 | 54 | 1006.9 |
| 20260503230038 | 10 | 251 | 3.2 | 4.8 | 0.00 | 0.03 | 0.00 | 59 | 1006.9 |
| 20260503224536 | 10 | 291 | 1.6 | 4.8 | 0.00 | 0.05 | 0.00 | 51 | 1006.8 |
| 20260503223039 | 10 | 326 | 4.8 | 8.0 | 0.00 | 0.05 | 0.00 | 49 | 1006.9 |
| 20260503221538 | 10 | 340 | 3.2 | 9.7 | 0.00 | 0.05 | 0.00 | 50 | 1006.9 |
| 20260503220038 | 10 | 320 | 0.0 | 4.8 | 0.00 | 0.05 | 0.00 | 50 | 1007.0 |
| 20260503214542 | 10 | 330 | 1.6 | 8.0 | 0.00 | 0.05 | 0.00 | 52 | 1006.9 |
| 20260503213051 | 10 | 2 | 3.2 | 11.3 | 0.00 | 0.05 | 0.00 | 50 | 1007.0 |
| 20260503211556 | 10 | 5 | 6.4 | 11.3 | 0.00 | 0.05 | 0.00 | 51 | 1007.0 |
| 20260503210036 | 10 | 28 | 3.2 | 9.7 | 0.00 | 0.05 | 0.00 | 53 | 1007.0 |
| 20260503204551 | 10 | 43 | 4.8 | 9.7 | 0.00 | 0.05 | 0.00 | 52 | 1007.0 |
| 20260503203035 | 10 | 358 | 4.8 | 11.3 | 0.00 | 0.05 | 0.00 | 53 | 1007.0 |
| 20260503201534 | 9 | 58 | 6.4 | 16.1 | 0.00 | 0.05 | 0.00 | 51 | 1007.2 |
| 20260503200034 | 9 | 18 | 6.4 | 14.5 | 0.00 | 0.05 | 0.00 | 53 | 1007.5 |
| 20260503194531 | 9 | 298 | 6.4 | 11.3 | 0.00 | 0.05 | 0.00 | 54 | 1007.5 |
| 20260503193039 | 8 | 349 | 4.8 | 9.7 | 0.00 | 0.05 | 0.00 | 57 | 1007.8 |
| 20260503191539 | 8 | 319 | 4.8 | 12.9 | 0.00 | 0.05 | 0.00 | 56 | 1007.8 |
| 20260503190034 | 8 | 360 | 6.4 | 12.9 | 0.00 | 0.05 | 0.00 | 57 | 1007.9 |
| 20260503184535 | 9 | 298 | 4.8 | 16.1 | 0.00 | 0.05 | 0.00 | 58 | 1007.9 |
| 20260503183042 | 8 | 43 | 6.4 | 16.1 | 0.00 | 0.05 | 0.00 | 58 | 1008.0 |
| 20260503181532 | 8 | 18 | 4.8 | 17.7 | 0.00 | 0.05 | 0.00 | 59 | 1008.1 |
| 20260503180035 | 8 | 48 | 8.0 | 16.1 | 0.00 | 0.05 | 0.00 | 59 | 1008.1 |
| 20260503174545 | 8 | 40 | 9.7 | 17.7 | 0.00 | 0.05 | 0.00 | 58 | 1008.2 |
| 20260503173032 | 8 | 286 | 3.2 | 8.0 | 0.00 | 0.05 | 0.00 | 63 | 1008.1 |
| 20260503171535 | 7 | 12 | 3.2 | 11.3 | 0.00 | 0.05 | 0.00 | 61 | 1008.4 |